Terminal Aerodrome Forecast
Issued by NWS Omaha/Valley, NE

Home | Current Version | Previous Version | Graphics & Text | Print | Product List | Glossary On
Versions: 1 2 3 4 5 6 7 8 9 10 11 12 13 14 15 16 17 18 19 20 21 22 23 24 25 26 27 28 29 30
000
FTUS43 KOAX 310520
TAFOFK
TAF
KOFK 310520Z 3106/0106 18005KT P6SM SCT250
     FM311200 20005KT P6SM SCT060 PROB30 3115/3118 -SHRA BKN060
     FM311900 14010KT P6SM SCT060
     FM010000 09008KT P6SM SCT050=

USA.gov is the U.S. government's official web portal to all federal, state and local government web resources and services.